This is the latest recevied weather packets stored in our database for station/object KB9PVH-3. If no packets are shown the sender has not sent any weather packets the latest 10 day(s).
| Time | Temp. | Humidity | Pressure | Rain* | Wind** | Luminosity | Snow |
|---|---|---|---|---|---|---|---|
| 1778182360 | 13.89° C | 37% | 1012 hPa | 0 mm | - | - | - |
| 1778180260 | 13.89° C | 38% | 1012.2 hPa | 0 mm | - | - | - |
| 1778179208 | 14.44° C | 39% | 1012.5 hPa | 0 mm | - | - | - |
| 1778178161 | 14.44° C | 39% | 1012.5 hPa | 0 mm | - | - | - |
| 1778177124 | 14.44° C | 40% | 1013 hPa | 0 mm | - | - | - |
| 1778176060 | 13.33° C | 39% | 1013.2 hPa | 0 mm | - | - | - |
| 1778175012 | 12.78° C | 44% | 1013.5 hPa | 0 mm | - | - | - |
| 1778173960 | 12.78° C | 39% | 1013.7 hPa | 0 mm | - | - | - |
| 1778172908 | 12.78° C | 40% | 1014.3 hPa | 0 mm | - | - | - |
| 1778171860 | 11.67° C | 41% | 1014.4 hPa | 0 mm | - | - | - |
| 1778170810 | 11.67° C | 41% | 1014.6 hPa | 0 mm | - | - | - |
| 1778169764 | 11.67° C | 40% | 1014.5 hPa | 0 mm | - | - | - |
| 1778168710 | 11.11° C | 45% | 1014.6 hPa | 0 mm | - | - | - |
| 1778167660 | 10.56° C | 41% | 1014.9 hPa | 0 mm | - | - | - |
| 1778166612 | 10.56° C | 46% | 1015.2 hPa | 0 mm | - | - | - |
| 1778165560 | 10° C | 47% | 1015.5 hPa | 0 mm | - | - | - |
| 1778164510 | 8.89° C | 57% | 1015.7 hPa | 0 mm | - | - | - |
| 1778163462 | 7.78° C | 59% | 1016 hPa | 0 mm | - | - | - |
| 1778161362 | 5.56° C | 68% | 1016.1 hPa | 0 mm | - | - | - |
| 1778159259 | 3.89° C | 71% | 1016.3 hPa | 0 mm | - | - | - |
| 1778158208 | 3.33° C | 75% | 1016.8 hPa | 0 mm | - | - | - |
| 1778157158 | 2.78° C | 74% | 1016.6 hPa | 0 mm | - | - | - |
| 1778156137 | 2.22° C | 72% | 1016.7 hPa | 0 mm | - | - | - |
| 1778155142 | 1.11° C | 74% | 1016.5 hPa | 0 mm | - | - | - |
| 1778155087 | 1.11° C | 74% | 1016.5 hPa | 0 mm | - | - | - |
* Rain latest hour (hover to see other rain measurements)
** Current wind speed in m/s (hover to see current wind gust speed)